Location: Franzen
(48.6167°N, 15.3833°E)
Time: 12:24:31
(UTC+00:00)

Vanguard 3 - Visible Passes

Search period start: 02 August 2021 00:00
Search period end: 12 August 2021 00:00
Orbit: 508 x 3261 km, 33.4° (Epoch: 02 August)

Date Brightness Start Highest point End Pass type
(mag) Time Alt. Az. Time Alt. Az. Time Alt. Az.
02 Aug 10.4 19:04:02 10° WSW 19:20:18 48° S 19:38:21 10° ESE visible
02 Aug 10.4 21:18:25 10° W 21:34:47 36° SSW 21:43:05 26° S visible
02 Aug 10.9 23:37:51 10° WSW 23:47:13 16° SW 23:47:33 16° SW visible
03 Aug 10.4 20:02:16 10° W 20:18:44 43° SSW 20:32:13 19° SE visible
03 Aug 10.6 22:18:22 10° W 22:32:20 25° SW 22:36:41 23° SSW visible
04 Aug 10.4 18:47:00 10° WSW 19:02:25 47° S 19:20:35 10° ESE visible
04 Aug 10.5 21:01:10 10° W 21:16:48 34° SSW 21:25:51 24° S visible
04 Aug 11.0 23:21:23 10° WSW 23:29:17 14° SW 23:30:19 14° SW visible
05 Aug 10.5 19:45:12 10° W 20:00:47 41° SSW 20:15:05 17° SE visible
05 Aug 10.7 22:01:18 10° W 22:14:21 23° SW 22:19:33 20° SSW visible
06 Aug 10.4 18:30:06 10° WSW 18:44:35 45° S 19:02:39 10° SE visible
06 Aug 10.7 20:44:06 10° W 20:58:50 31° SSW 21:08:50 20° S visible
06 Aug 11.1 23:05:50 10° WSW 23:11:22 12° SW 23:13:19 12° SW visible
07 Aug 10.6 19:28:16 10° W 19:42:54 38° SSW 19:58:10 14° SE visible
07 Aug 10.9 21:44:32 10° W 21:56:24 20° SW 22:02:39 17° SSW visible
08 Aug 10.8 20:27:16 10° W 20:40:55 29° SSW 20:52:02 17° S visible
09 Aug 10.6 19:11:32 10° W 19:25:06 35° SSW 19:41:29 10° SSE visible
09 Aug 11.0 21:28:10 10° WSW 21:38:30 18° SW 21:46:00 14° SSW visible
10 Aug 10.9 20:10:40 10° W 20:23:05 25° SSW 20:35:30 13° S visible
11 Aug 10.7 18:54:58 10° WSW 19:07:24 32° SSW 19:23:11 10° SSE visible
11 Aug 11.2 21:12:23 10° WSW 21:20:42 15° SW 21:29:32 10° SSW visible
